Home > Weather > Niamey > Past weeks

Flag for Niger Weather for the Past 2 Weeks in Niamey, Niger

Now
95 °F

Clear.


Feels Like: 94 °F
Forecast: 85 / 110 °F
Wind: 8 mph from Southwest

Location: Niamey-Aero

Current Time: May 3, 2016 at 2:08:26 AM

Latest Report: May 3, 2016 at 1:00 AM


Visibility: 5 mi

Pressure: 29.77 "Hg

Humidity: 30%

Dew Point: 59 °F

Location of NiameyLocation

Historic Weather in Niamey — Graph

°F

Niamey Temperature Yesterday

Maximum temperature yesterday: 111 °F (at 3:00 PM)
Minimum temperature yesterday: 90 °F (at 6:00 AM)
Average temperature yesterday: 100 °F

High & Low Weather Summary for the Past Weeks

 TemperatureHumidityPressure
High111 °F (Apr 24, 4:00 PM)52% (Apr 27, 7:00 AM)29.92 "Hg (Apr 27, 7:00 AM)
Low81 °F (Apr 23, 5:00 AM)5% (Apr 23, 6:00 PM)29.62 "Hg (May 2, 6:00 PM)
Average98 °F21%29.76 "Hg
* Reported Midnight between Apr 17 and Apr 18 — Midnight between May 2 and May 3, Niamey, Weather by CustomWeather, © 2016

Note: Actual official high and low records may vary slightly from our data, if they occured in-between our weather recording intervals... More about our weather records

Advertising

Niamey Weather History for the Previous 24 Hours

Scroll right to see more
 ConditionsComfort  
Time TempWeatherWind HumidityBarometerVisibility
12:00 AM
Tue, May 3
97 °FClear.7 mph19%29.77 "Hg5 mi
11:00 PM
Mon, May 2
100 °FClear.2 mph15%29.74 "Hg5 mi
10:00 PM100 °FClear.6 mph13%29.74 "Hg4 mi
9:00 PM102 °FClear.6 mph11%29.71 "Hg4 mi
8:00 PM106 °FClear.7 mph9%29.68 "Hg4 mi
6:00 PM109 °FPassing clouds.3 mph8%29.62 "Hg4 mi
5:00 PM109 °FPassing clouds.8 mph8%29.65 "Hg4 mi
4:00 PM111 °FPassing clouds.2 mph9%29.65 "Hg4 mi
3:00 PM111 °FPassing clouds.2 mph9%29.65 "Hg4 mi
2:00 PM109 °FPassing clouds.6 mph12%29.71 "Hg5 mi
1:00 PM108 °FPassing clouds.3 mph15%29.74 "HgN/A
12:00 PM104 °FPassing clouds.10 mph21%29.77 "HgN/A
11:00 AM100 °FPassing clouds.12 mph29%29.77 "HgN/A
10:00 AM99 °FSunny.14 mph33%29.80 "Hg10 mi
9:00 AM95 °FSunny.9 mph39%29.77 "Hg10 mi
8:00 AM91 °FSunny.6 mph41%29.77 "Hg10 mi
7:00 AM90 °FClear.5 mph43%29.74 "Hg4 mi
6:00 AM90 °FClear.6 mph38%29.74 "Hg5 mi
5:00 AM91 °FClear.7 mph34%29.71 "Hg5 mi
4:00 AM91 °FClear.6 mph26%29.68 "Hg5 mi
3:00 AM91 °FClear.3 mph23%29.68 "Hg5 mi
2:00 AM91 °FClear.1 mph21%29.71 "Hg5 mi
Weather by CustomWeather, © 2016

See weather overviewHow to use our weather pages